Location: *
(46.1006°N, 1.8394°E)
Time: 21:09:06
(UTC+00:00)

Cosmos 2082 - Pass Details

Date: 20 September 2019
Orbit: 834 x 855 km, 71.0° (Epoch: 17 October)

Event Time Altitude Azimuth Distance (km) Brightness Sun altitude
Rises 19:58:05 0° 196° (SSW) 3,410 6.8 -21.4°
Reaches altitude 10° 20:00:32 10° 194° (SSW) 2,479 6.0 -21.8°
Maximum altitude 20:06:12 68° 112° (ESE) 919 3.6 -22.7°
Drops below altitude 10° 20:11:53 10° 31° (NNE) 2,493 6.1 -23.6°
Sets 20:14:21 0° 29° (NNE) 3,431 6.9 -23.9°
